| time (UTC) | temp F | wind direction | speed knots | gust knots | rain 1hr in | rain 24hr in | rain mn in | humidity % | barometer mb |
| 20260507191714 | 71 | 244 | 7.0 | 16.5 | 0.00 | 0.00 | 0.00 | 33 | 1015.1 |
| 20260507190714 | 72 | 238 | 13.0 | 20.0 | 0.00 | 0.00 | 0.00 | 34 | 1015.1 |
| 20260507185711 | 69 | 240 | 8.7 | 18.2 | 0.00 | 0.00 | 0.00 | 36 | 1015.3 |
| 20260507184711 | 69 | 259 | 8.7 | 16.5 | 0.00 | 0.00 | 0.00 | 37 | 1015.6 |
| 20260507183711 | 70 | 227 | 7.8 | 15.6 | 0.00 | 0.00 | 0.00 | 36 | 1015.5 |
| 20260507182711 | 69 | 223 | 5.2 | 19.1 | 0.00 | 0.00 | 0.00 | 38 | 1015.5 |
| 20260507181709 | 68 | 228 | 6.1 | 21.7 | 0.00 | 0.00 | 0.00 | 39 | 1016.0 |
| 20260507180709 | 69 | 219 | 12.2 | 17.4 | 0.00 | 0.00 | 0.00 | 36 | 1016.1 |
| 20260507175707 | 66 | 219 | 9.6 | 22.6 | 0.00 | 0.00 | 0.00 | 40 | 1016.4 |
| 20260507174701 | 66 | 219 | 14.8 | 20.9 | 0.00 | 0.00 | 0.00 | 40 | 1016.4 |
| 20260507173656 | 66 | 217 | 7.0 | 14.8 | 0.00 | 0.00 | 0.00 | 43 | 1016.5 |
| 20260507172656 | 66 | 239 | 10.4 | 21.7 | 0.00 | 0.00 | 0.00 | 41 | 1016.7 |
| 20260507171652 | 65 | 237 | 5.2 | 18.2 | 0.00 | 0.00 | 0.00 | 40 | 1016.9 |
| 20260507170653 | 64 | 198 | 5.2 | 20.9 | 0.00 | 0.00 | 0.00 | 43 | 1016.6 |
| 20260507165651 | 64 | 206 | 9.6 | 16.5 | 0.00 | 0.00 | 0.00 | 45 | 1017.3 |
| 20260507164649 | 63 | 208 | 6.1 | 16.5 | 0.00 | 0.00 | 0.00 | 46 | 1017.5 |
| 20260507163650 | 63 | 219 | 11.3 | 18.2 | 0.00 | 0.00 | 0.00 | 46 | 1017.7 |
| 20260507162649 | 63 | 236 | 11.3 | 20.9 | 0.00 | 0.00 | 0.00 | 47 | 1017.9 |
| 20260507161648 | 61 | 227 | 11.3 | 17.4 | 0.00 | 0.00 | 0.00 | 50 | 1018.0 |
| 20260507160647 | 60 | 218 | 7.0 | 20.0 | 0.00 | 0.00 | 0.00 | 50 | 1017.9 |
| 20260507155645 | 60 | 244 | 12.2 | 20.0 | 0.00 | 0.00 | 0.00 | 51 | 1018.2 |
| 20260507154644 | 59 | 248 | 17.4 | 20.9 | 0.00 | 0.00 | 0.00 | 54 | 1018.1 |
| 20260507153644 | 59 | 225 | 7.8 | 13.9 | 0.00 | 0.00 | 0.00 | 56 | 1018.1 |
| 20260507152642 | 58 | 228 | 11.3 | 19.1 | 0.00 | 0.00 | 0.00 | 56 | 1018.4 |
| 20260507151640 | 57 | 256 | 16.5 | 22.6 | 0.00 | 0.00 | 0.00 | 59 | 1018.7 |
| 20260507150639 | 57 | 246 | 11.3 | 18.2 | 0.00 | 0.00 | 0.00 | 60 | 1018.7 |
| 20260507145637 | 56 | 236 | 9.6 | 19.1 | 0.00 | 0.00 | 0.00 | 62 | 1018.7 |
| 20260507144637 | 55 | 244 | 13.0 | 22.6 | 0.00 | 0.00 | 0.00 | 63 | 1018.7 |
| 20260507143637 | 55 | 227 | 10.4 | 17.4 | 0.00 | 0.00 | 0.00 | 64 | 1018.9 |
| 20260507142636 | 54 | 236 | 11.3 | 20.9 | 0.00 | 0.00 | 0.00 | 67 | 1019.2 |
| 20260507141635 | 53 | 259 | 12.2 | 20.9 | 0.00 | 0.00 | 0.00 | 70 | 1019.2 |
| 20260507140634 | 52 | 245 | 17.4 | 22.6 | 0.00 | 0.00 | 0.00 | 73 | 1019.2 |
| 20260507135634 | 52 | 235 | 12.2 | 20.0 | 0.00 | 0.00 | 0.00 | 74 | 1019.6 |
| 20260507134633 | 51 | 234 | 7.8 | 15.6 | 0.00 | 0.00 | 0.00 | 78 | 1019.5 |
| 20260507133631 | 50 | 244 | 7.8 | 12.2 | 0.00 | 0.00 | 0.00 | 81 | 1019.6 |
| 20260507132632 | 49 | 235 | 6.1 | 14.8 | 0.00 | 0.00 | 0.00 | 82 | 1019.5 |
| 20260507131630 | 47 | 242 | 9.6 | 16.5 | 0.00 | 0.00 | 0.00 | 85 | 1019.6 |
| 20260507130630 | 46 | 217 | 3.5 | 9.6 | 0.00 | 0.00 | 0.00 | 87 | 1019.6 |
| 20260507125627 | 45 | 225 | 9.6 | 9.6 | 0.00 | 0.00 | 0.00 | 88 | 1019.7 |
| 20260507124626 | 44 | 231 | 5.2 | 7.0 | 0.00 | 0.00 | 0.00 | 89 | 1019.6 |
| 20260507123622 | 43 | 216 | 4.3 | 9.6 | 0.00 | 0.00 | 0.00 | 91 | 1019.3 |
| 20260507122619 | 42 | 222 | 2.6 | 7.8 | 0.00 | 0.00 | 0.00 | 92 | 1019.2 |
| 20260507121617 | 41 | 202 | 2.6 | 6.1 | 0.00 | 0.00 | 0.00 | 94 | 1019.4 |
| 20260507120615 | 40 | 223 | 3.5 | 4.3 | 0.00 | 0.00 | 0.00 | 94 | 1019.4 |
| 20260507115615 | 40 | 228 | 4.3 | 5.2 | 0.00 | 0.00 | 0.00 | 95 | 1019.4 |
| 20260507114613 | 39 | 205 | 1.7 | 4.3 | 0.00 | 0.00 | 0.00 | 95 | 1019.3 |
| 20260507113607 | 39 | 217 | 0.0 | 3.5 | 0.00 | 0.00 | 0.00 | 94 | 1019.2 |
| 20260507112602 | 39 | 193 | 0.0 | 3.5 | 0.00 | 0.00 | 0.00 | 94 | 1019.7 |
| 20260507111601 | 39 | 224 | 1.7 | 2.6 | 0.00 | 0.00 | 0.00 | 94 | 1019.2 |
| 20260507110600 | 39 | 234 | 1.7 | 3.5 | 0.00 | 0.00 | 0.00 | 94 | 1019.5 |
| 20260507105600 | 39 | 210 | 0.9 | 3.5 | 0.00 | 0.00 | 0.00 | 94 | 1019.7 |
| 20260507104559 | 39 | 210 | 2.6 | 3.5 | 0.00 | 0.00 | 0.00 | 93 | 1019.6 |
| 20260507103557 | 40 | 206 | 2.6 | 4.3 | 0.00 | 0.00 | 0.00 | 93 | 1019.4 |
| 20260507102556 | 41 | 267 | 1.7 | 4.3 | 0.00 | 0.00 | 0.00 | 94 | 1019.2 |
| 20260507101554 | 40 | 241 | 1.7 | 2.6 | 0.00 | 0.00 | 0.00 | 94 | 1019.6 |
| 20260507100554 | 40 | 288 | 0.0 | 2.6 | 0.00 | 0.00 | 0.00 | 93 | 1019.6 |
| 20260507095549 | 41 | 236 | 1.7 | 2.6 | 0.00 | 0.00 | 0.00 | 92 | 1019.7 |
| 20260507094548 | 41 | 242 | 1.7 | 2.6 | 0.00 | 0.00 | 0.00 | 92 | 1019.7 |
| 20260507093549 | 41 | 218 | 1.7 | 2.6 | 0.00 | 0.00 | 0.00 | 92 | 1019.8 |
| 20260507092543 | 41 | 180 | 0.9 | 2.6 | 0.00 | 0.00 | 0.00 | 91 | 1019.8 |
| 20260507091543 | 41 | 240 | 1.7 | 3.5 | 0.00 | 0.00 | 0.00 | 90 | 1020.0 |
| 20260507090540 | 42 | 229 | 1.7 | 2.6 | 0.00 | 0.00 | 0.00 | 89 | 1019.9 |
| 20260507085540 | 43 | 263 | 2.6 | 3.5 | 0.00 | 0.00 | 0.00 | 88 | 1020.0 |
| 20260507084539 | 43 | 252 | 2.6 | 4.3 | 0.00 | 0.00 | 0.00 | 88 | 1020.2 |
| 20260507083538 | 43 | 258 | 3.5 | 4.3 | 0.00 | 0.00 | 0.00 | 87 | 1020.3 |
| 20260507082537 | 43 | 264 | 5.2 | 6.1 | 0.00 | 0.00 | 0.00 | 87 | 1020.5 |
| 20260507081536 | 44 | 266 | 4.3 | 7.0 | 0.00 | 0.00 | 0.00 | 86 | 1020.4 |
| 20260507080535 | 44 | 259 | 4.3 | 6.1 | 0.00 | 0.00 | 0.00 | 86 | 1020.4 |
| 20260507075533 | 44 | 264 | 4.3 | 6.1 | 0.00 | 0.00 | 0.00 | 85 | 1020.6 |
| 20260507074532 | 44 | 268 | 2.6 | 4.3 | 0.00 | 0.00 | 0.00 | 85 | 1020.5 |
| 20260507073533 | 45 | 265 | 2.6 | 4.3 | 0.00 | 0.00 | 0.00 | 84 | 1020.6 |
| 20260507072533 | 45 | 279 | 2.6 | 3.5 | 0.00 | 0.00 | 0.00 | 84 | 1020.6 |
| 20260507071527 | 45 | 289 | 1.7 | 5.2 | 0.00 | 0.00 | 0.00 | 83 | 1020.7 |
| 20260507070527 | 45 | 296 | 1.7 | 3.5 | 0.00 | 0.00 | 0.00 | 82 | 1021.0 |
| 20260507065526 | 46 | 290 | 1.7 | 3.5 | 0.00 | 0.00 | 0.00 | 81 | 1020.8 |
| 20260507064521 | 46 | 255 | 2.6 | 5.2 | 0.00 | 0.00 | 0.00 | 80 | 1021.2 |
| 20260507063522 | 47 | 271 | 2.6 | 4.3 | 0.00 | 0.00 | 0.00 | 80 | 1021.2 |
| 20260507062521 | 47 | 249 | 2.6 | 4.3 | 0.00 | 0.00 | 0.00 | 79 | 1021.2 |
| 20260507061517 | 48 | 265 | 2.6 | 5.2 | 0.00 | 0.00 | 0.00 | 78 | 1021.2 |
| 20260507060512 | 48 | 260 | 2.6 | 5.2 | 0.00 | 0.00 | 0.00 | 78 | 1021.0 |
| 20260507055509 | 47 | 288 | 1.7 | 2.6 | 0.00 | 0.00 | 0.00 | 78 | 1020.8 |
| 20260507054507 | 48 | 267 | 1.7 | 2.6 | 0.00 | 0.00 | 0.00 | 77 | 1021.3 |
| 20260507053507 | 48 | 256 | 0.0 | 0.9 | 0.00 | 0.00 | 0.00 | 77 | 1021.2 |
| 20260507052503 | 48 | 213 | 1.7 | 2.6 | 0.00 | 0.00 | 0.00 | 76 | 1021.1 |
| 20260507051503 | 48 | 228 | 0.9 | 2.6 | 0.00 | 0.00 | 0.00 | 75 | 1021.3 |
| 20260507050501 | 48 | 250 | 0.0 | 0.9 | 0.00 | 0.00 | 0.00 | 77 | 1021.5 |
| 20260507045501 | 47 | 191 | 0.0 | 1.7 | 0.00 | 0.02 | 0.02 | 80 | 1021.1 |
| 20260507044500 | 47 | 225 | 0.0 | 1.7 | 0.00 | 0.02 | 0.02 | 80 | 1021.3 |
| 20260507043459 | 46 | 124 | 1.7 | 1.7 | 0.00 | 0.02 | 0.02 | 81 | 1021.2 |
| 20260507042458 | 46 | 180 | 0.0 | 0.9 | 0.00 | 0.02 | 0.02 | 83 | 1021.3 |
| 20260507041456 | 46 | 104 | 0.0 | 0.0 | 0.00 | 0.02 | 0.02 | 82 | 1021.0 |
| 20260507040455 | 45 | 104 | 0.0 | 0.0 | 0.00 | 0.02 | 0.02 | 82 | 1021.2 |
| 20260507035454 | 45 | 269 | 0.0 | 0.9 | 0.00 | 0.02 | 0.02 | 82 | 1021.2 |
| 20260507034453 | 45 | 81 | 0.9 | 0.9 | 0.00 | 0.02 | 0.02 | 80 | 1021.2 |
| 20260507033449 | 45 | 77 | 1.7 | 1.7 | 0.00 | 0.02 | 0.02 | 81 | 1021.2 |
| 20260507032448 | 45 | 109 | 1.7 | 1.7 | 0.00 | 0.02 | 0.02 | 80 | 1021.2 |
| 20260507031447 | 44 | 133 | 0.9 | 1.7 | 0.00 | 0.02 | 0.02 | 79 | 1021.3 |
| 20260507030446 | 45 | 107 | 0.0 | 0.0 | 0.00 | 0.02 | 0.02 | 78 | 1021.2 |
| 20260507025441 | 44 | 107 | 0.0 | 0.9 | 0.00 | 0.02 | 0.02 | 77 | 1021.1 |
| 20260507024436 | 45 | 36 | 0.0 | 1.7 | 0.00 | 0.02 | 0.02 | 76 | 1020.8 |
| 20260507023434 | 45 | 55 | 0.0 | 0.9 | 0.00 | 0.02 | 0.02 | 75 | 1020.8 |
| 20260507022435 | 45 | 68 | 0.9 | 1.7 | 0.00 | 0.02 | 0.02 | 74 | 1021.0 |
| 20260507021431 | 46 | 35 | 0.9 | 1.7 | 0.00 | 0.02 | 0.02 | 72 | 1020.8 |
| 20260507020432 | 47 | 66 | 0.0 | 0.9 | 0.00 | 0.02 | 0.02 | 68 | 1020.4 |
| 20260507015427 | 48 | 102 | 0.9 | 1.7 | 0.00 | 0.02 | 0.02 | 65 | 1020.7 |
| 20260507014426 | 50 | 53 | 0.9 | 1.7 | 0.00 | 0.02 | 0.02 | 61 | 1020.5 |
| 20260507013425 | 51 | 15 | 0.0 | 0.9 | 0.00 | 0.02 | 0.02 | 58 | 1020.5 |
| 20260507012425 | 53 | 76 | 0.9 | 1.7 | 0.00 | 0.02 | 0.02 | 55 | 1020.2 |
| 20260507011425 | 54 | 39 | 0.0 | 2.6 | 0.00 | 0.02 | 0.02 | 52 | 1020.1 |
| 20260507010421 | 55 | 338 | 1.7 | 3.5 | 0.00 | 0.02 | 0.02 | 49 | 1020.1 |
| 20260507005421 | 57 | 13 | 1.7 | 4.3 | 0.00 | 0.02 | 0.02 | 46 | 1020.1 |
| 20260507004420 | 56 | 294 | 2.6 | 2.6 | 0.00 | 0.02 | 0.02 | 48 | 1020.1 |
| 20260507003418 | 56 | 4 | 4.3 | 6.1 | 0.00 | 0.02 | 0.02 | 47 | 1019.9 |
| 20260507002416 | 57 | 302 | 2.6 | 7.0 | 0.00 | 0.02 | 0.02 | 46 | 1019.9 |
| 20260507001416 | 57 | 350 | 2.6 | 6.1 | 0.00 | 0.02 | 0.02 | 46 | 1019.7 |
| 20260507000415 | 57 | 13 | 1.7 | 3.5 | 0.00 | 0.02 | 0.02 | 45 | 1019.8 |
| 20260506235414 | 57 | 45 | 2.6 | 6.1 | 0.00 | 0.02 | 0.02 | 45 | 1019.9 |
| 20260506234414 | 57 | 45 | 4.3 | 6.1 | 0.00 | 0.02 | 0.02 | 45 | 1020.0 |
| 20260506233413 | 57 | 16 | 3.5 | 7.0 | 0.00 | 0.02 | 0.02 | 45 | 1020.0 |
| 20260506232412 | 57 | 75 | 2.6 | 5.2 | 0.00 | 0.02 | 0.02 | 45 | 1019.8 |
| 20260506231411 | 57 | 12 | 3.5 | 6.1 | 0.00 | 0.02 | 0.02 | 45 | 1019.8 |
| 20260506230411 | 58 | 64 | 2.6 | 7.8 | 0.00 | 0.02 | 0.02 | 47 | 1019.8 |
| 20260506225411 | 57 | 18 | 3.5 | 8.7 | 0.00 | 0.02 | 0.02 | 45 | 1019.9 |
| 20260506224411 | 60 | 8 | 4.3 | 7.8 | 0.00 | 0.02 | 0.02 | 44 | 1019.7 |
| 20260506223408 | 59 | 17 | 2.6 | 7.0 | 0.00 | 0.02 | 0.02 | 46 | 1019.7 |
| 20260506222408 | 61 | 280 | 3.5 | 10.4 | 0.00 | 0.02 | 0.02 | 43 | 1019.7 |
| 20260506221402 | 59 | 32 | 2.6 | 9.6 | 0.00 | 0.02 | 0.02 | 47 | 1019.9 |
| 20260506220401 | 58 | 64 | 2.6 | 7.8 | 0.00 | 0.02 | 0.02 | 45 | 1019.9 |
| 20260506215400 | 59 | 20 | 2.6 | 9.6 | 0.00 | 0.02 | 0.02 | 47 | 1019.6 |
| 20260506214359 | 58 | 298 | 2.6 | 6.1 | 0.00 | 0.02 | 0.02 | 49 | 1019.9 |
| 20260506213354 | 58 | 17 | 4.3 | 7.0 | 0.00 | 0.02 | 0.02 | 48 | 1020.0 |
| 20260506212353 | 58 | 30 | 3.5 | 7.0 | 0.00 | 0.02 | 0.02 | 49 | 1020.2 |
| 20260506211350 | 57 | 289 | 0.9 | 7.8 | 0.00 | 0.02 | 0.02 | 50 | 1020.3 |
| 20260506210350 | 57 | 39 | 5.2 | 7.8 | 0.00 | 0.02 | 0.02 | 50 | 1020.3 |
| 20260506205349 | 57 | 333 | 3.5 | 10.4 | 0.00 | 0.02 | 0.02 | 51 | 1020.5 |
| 20260506204349 | 57 | 20 | 5.2 | 9.6 | 0.00 | 0.02 | 0.02 | 51 | 1020.8 |
| 20260506203349 | 58 | 15 | 3.5 | 8.7 | 0.00 | 0.02 | 0.02 | 52 | 1020.5 |
| 20260506202348 | 59 | 10 | 4.3 | 10.4 | 0.00 | 0.02 | 0.02 | 49 | 1020.6 |
| 20260506201347 | 57 | 313 | 5.2 | 8.7 | 0.00 | 0.02 | 0.02 | 50 | 1020.7 |
| 20260506200345 | 59 | 318 | 2.6 | 10.4 | 0.00 | 0.02 | 0.02 | 46 | 1020.8 |
| 20260506195344 | 57 | 31 | 6.1 | 11.3 | 0.00 | 0.02 | 0.02 | 50 | 1021.3 |
| 20260506194342 | 58 | 13 | 6.1 | 7.8 | 0.00 | 0.02 | 0.02 | 49 | 1021.2 |
| 20260506193342 | 57 | 343 | 2.6 | 7.0 | 0.00 | 0.02 | 0.02 | 51 | 1021.2 |
| 20260506192341 | 58 | 25 | 3.5 | 7.0 | 0.00 | 0.02 | 0.02 | 49 | 1021.2 |